Location: Rio Tanui
(39.9167°N, 8.5167°E)
Time: 03:11:35
(UTC+00:00)

Meteor 2-2 Rocket - Pass Details

Date: 08 February 2023
Orbit: 853 x 927 km, 81.3° (Epoch: 01 April)

Event Time Altitude Azimuth Distance (km) Brightness Sun altitude
Rises 19:21:22 0° 347° (NNW) 3,444 7.6 -28.8°
Reaches altitude 10° 19:23:47 10° 345° (NNW) 2,510 6.9 -29.3°
Maximum altitude 19:29:26 66° 264° (W) 948 4.5 -30.3°
Enters shadow 19:30:40 52° 209° (SSW) 1,081 4.7 -30.6°
